AAL1996 SVMI-KMIA

Flight info

Callsign AAL1996
Flight time N/A
Altitude 36000
Route VADOR2 PULPO UL216 AGMEX UL304 ALRED UL212 OMERO UL218 MIROM DCT ZEUSS VIICE2
Aircraft A321/M-SDE3FGHIRWY/LB1

Departure

Time 2026-05-05 00:29
Airport Maiquetía Simón Bolívar International Airport (SVMI)

Arrival

Time N/A
Airport Miami International Airport (KMIA)
Time Latitude Longitude Altitude Speed Heading
2026-05-05 00:11 10.59820 -67.00727 237 ft 0 kts 178°
2026-05-05 00:22 10.59823 -67.00727 236 ft 3 kts 178°
2026-05-05 00:22 10.59842 -67.00727 232 ft 3 kts 178°
2026-05-05 00:22 10.59861 -67.00728 235 ft 3 kts 178°
2026-05-05 00:22 10.59879 -67.00728 234 ft 3 kts 178°
2026-05-05 00:23 10.59898 -67.00725 232 ft 3 kts 232°
2026-05-05 00:23 10.59904 -67.00712 233 ft 0 kts 269°
2026-05-05 00:25 10.59904 -67.00721 233 ft 3 kts 269°
2026-05-05 00:26 10.59909 -67.00755 234 ft 7 kts 282°
2026-05-05 00:26 10.59910 -67.00812 234 ft 10 kts 268°
2026-05-05 00:26 10.59908 -67.00890 235 ft 12 kts 268°
2026-05-05 00:26 10.59906 -67.00984 237 ft 13 kts 268°
2026-05-05 00:27 10.59904 -67.01077 238 ft 13 kts 268°
2026-05-05 00:27 10.59901 -67.01168 240 ft 13 kts 268°
2026-05-05 00:27 10.59934 -67.01235 241 ft 11 kts 352°
2026-05-05 00:27 10.60016 -67.01240 241 ft 12 kts 355°
2026-05-05 00:28 10.60104 -67.01247 241 ft 14 kts 355°
2026-05-05 00:28 10.60210 -67.01255 238 ft 16 kts 355°
2026-05-05 00:28 10.60324 -67.01251 240 ft 16 kts
2026-05-05 00:28 10.60383 -67.01182 240 ft 15 kts 87°
2026-05-05 00:29 10.60386 -67.01017 239 ft 49 kts 89°
2026-05-05 00:29 10.60407 -67.00373 227 ft 130 kts 88°
2026-05-05 00:29 10.60442 -66.99234 353 ft 182 kts 89°
2026-05-05 00:29 10.60466 -66.97971 1207 ft 178 kts 88°
2026-05-05 00:30 10.60696 -66.96713 2087 ft 184 kts 78°
2026-05-05 00:30 10.60976 -66.95378 2324 ft 203 kts 79°
2026-05-05 00:30 10.61243 -66.93888 2456 ft 226 kts 81°
2026-05-05 00:30 10.61536 -66.92229 2671 ft 250 kts 77°
2026-05-05 00:31 10.62378 -66.90639 3020 ft 266 kts 42°
2026-05-05 00:31 10.64030 -66.89790 3519 ft 273 kts 12°
2026-05-05 00:31 10.65933 -66.89620 4070 ft 277 kts
2026-05-05 00:31 10.67870 -66.89703 4725 ft 280 kts 357°
2026-05-05 00:32 10.69825 -66.89830 5321 ft 284 kts 358°
2026-05-05 00:32 10.71819 -66.89919 5897 ft 289 kts 360°
2026-05-05 00:32 10.73842 -66.89947 6503 ft 293 kts
2026-05-05 00:32 10.75882 -66.89926 7145 ft 294 kts
2026-05-05 00:33 10.77943 -66.89874 7698 ft 298 kts
2026-05-05 00:33 10.79999 -66.89801 8291 ft 301 kts
2026-05-05 00:33 10.82117 -66.89724 8959 ft 302 kts
2026-05-05 00:33 10.84186 -66.90006 9504 ft 309 kts 345°
2026-05-05 00:34 10.86139 -66.90938 10115 ft 314 kts 329°
2026-05-05 00:34 10.88001 -66.92211 10304 ft 332 kts 327°
2026-05-05 00:34 10.89957 -66.93565 10429 ft 350 kts 327°
2026-05-05 00:34 10.92013 -66.94996 10620 ft 363 kts 328°
2026-05-05 00:35 10.94118 -66.96459 10997 ft 370 kts 328°
2026-05-05 00:35 10.96248 -66.97939 11487 ft 372 kts 328°
2026-05-05 00:35 10.98392 -66.99426 11984 ft 374 kts 328°
2026-05-05 00:35 11.00550 -67.00916 12456 ft 376 kts 328°
2026-05-05 00:36 11.02726 -67.02417 12911 ft 379 kts 328°
2026-05-05 00:36 11.04917 -67.03930 13367 ft 381 kts 328°
2026-05-05 00:36 11.06372 -67.04936 13665 ft 383 kts 328°
2026-05-05 00:37 11.13946 -67.10195 15037 ft 390 kts 328°
2026-05-05 00:37 11.16195 -67.11755 15432 ft 392 kts 328°
2026-05-05 00:37 11.18452 -67.13320 15827 ft 394 kts 328°
2026-05-05 00:38 11.20723 -67.14896 16205 ft 396 kts 328°
2026-05-05 00:38 11.23004 -67.16479 16608 ft 398 kts 328°
2026-05-05 00:38 11.25299 -67.18070 16991 ft 400 kts 328°
2026-05-05 00:38 11.27605 -67.19668 17386 ft 402 kts 328°
2026-05-05 00:39 11.29937 -67.21244 17771 ft 403 kts 333°
2026-05-05 00:39 11.32460 -67.22466 18148 ft 401 kts 343°
2026-05-05 00:39 11.35122 -67.23317 18492 ft 402 kts 346°
2026-05-05 00:39 11.37802 -67.24143 18850 ft 403 kts 346°
2026-05-05 00:40 11.40490 -67.24978 19228 ft 403 kts 346°
2026-05-05 00:40 11.43169 -67.25817 19601 ft 403 kts 346°
2026-05-05 00:40 11.45812 -67.26645 19973 ft 402 kts 346°
2026-05-05 00:40 11.48493 -67.27484 20341 ft 403 kts 345°
2026-05-05 00:41 11.51171 -67.28324 20725 ft 402 kts 345°
2026-05-05 00:41 11.53845 -67.29163 21119 ft 401 kts 345°
2026-05-05 00:41 11.56513 -67.29997 21433 ft 402 kts 345°
2026-05-05 00:41 11.59191 -67.30834 21781 ft 402 kts 344°
2026-05-05 00:42 11.61869 -67.31681 22135 ft 402 kts 343°
2026-05-05 00:42 11.64544 -67.32551 22441 ft 404 kts 343°
2026-05-05 00:42 11.67222 -67.33437 22784 ft 404 kts 342°
2026-05-05 00:42 11.69900 -67.34330 23115 ft 406 kts 342°
2026-05-05 00:43 11.72553 -67.35214 23418 ft 407 kts 342°
2026-05-05 00:43 11.75247 -67.36112 23697 ft 408 kts 342°
2026-05-05 00:43 11.77950 -67.37008 23945 ft 409 kts 342°
2026-05-05 00:43 11.80668 -67.37902 24190 ft 411 kts 342°
2026-05-05 00:44 11.83396 -67.38795 24431 ft 413 kts 342°
2026-05-05 00:44 11.86140 -67.39692 24665 ft 414 kts 342°
2026-05-05 00:44 11.88892 -67.40598 24894 ft 416 kts 342°
2026-05-05 00:44 11.91657 -67.41512 25139 ft 418 kts 342°
2026-05-05 00:45 11.94427 -67.42428 25371 ft 419 kts 342°
2026-05-05 00:45 11.97209 -67.43347 25595 ft 421 kts 342°
2026-05-05 00:45 12.00007 -67.44267 25830 ft 422 kts 342°
2026-05-05 00:45 12.02810 -67.45190 26054 ft 424 kts 342°
2026-05-05 00:46 12.05628 -67.46120 26273 ft 426 kts 342°
2026-05-05 00:46 12.08451 -67.47054 26511 ft 427 kts 342°
2026-05-05 00:46 12.11285 -67.47989 26734 ft 429 kts 342°
2026-05-05 00:46 12.14136 -67.48930 26945 ft 431 kts 342°
2026-05-05 00:47 12.16955 -67.49863 27183 ft 432 kts 342°
2026-05-05 00:47 12.19828 -67.50812 27387 ft 434 kts 342°
2026-05-05 00:47 12.22713 -67.51766 27594 ft 436 kts 342°